Temp
-13 -13 -12 -13 -13 -12 -12 -12 -12 -12 -12 -12 -12 -13 -13 -13 -13 -13 -13 -13 -13 -12 -12 -12 -12 -12 -12 -12 -13 -12 -13 -13 -13 -13 -12 -12 -12 -12 -12 -11 -11 -12 -13 -13 -13 -12 -11
-14 -14 -14 -13 -13 -13 -13 -14 -14 -14 -14 -13 -13 -13 -13 -13 -14 -14 -14 -13 -13 -13 -13 -13 -13 -12 -12 -12 -13 -13 -13 -13 -13 -13 -13 -13 -13 -12 -12 -12 -12 -12 -13 -13 -13 -12 -12
-14 -14 -14 -14 -14 -14 -14 -14 -14 -15 -14 -15 -15 -14 -14 -14 -14 -14 -14 -14 -14 -14 -14 -13 -13 -13 -12 -13 -13 -13 -13 -14 -13 -13 -13 -13 -13 -13 -12 -12 -12 -12 -13 -13 -13 -12 -12
-15 -15 -15 -15 -15 -15 -15 -15 -15 -15 -15 -15 -15 -15 -15 -14 -14 -14 -14 -14 -14 -14 -14 -14 -13 -13 -12 -14 -14 -13 -13 -14 -14 -14 -13 -13 -13 -13 -12 -13 -12 -12 -13 -13 -13 -12 -12
-16 -16 -15 -16 -16 -15 -15 -16 -16 -16 -16 -16 -16 -16 -16 -16 -15 -15 -15 -14 -14 -14 -14 -14 -14 -13 -13 -13 -14 -14 -13 -14 -14 -14 -14 -13 -13 -12 -13 -12 -12 -12 -13 -13 -13 -12 -12
-17 -17 -17 -16 -16 -16 -16 -16 -17 -17 -17 -17 -17 -17 -17 -17 -17 -16 -16 -16 -15 -14 -14 -14 -14 -14 -14 -14 -14 -14 -13 -14 -14 -14 -14 -14 -13 -12 -12 -12 -12 -14 -14 -13 -13 -12 -12
-18 -18 -18 -17 -17 -18 -18 -18 -18 -18 -18 -17 -17 -17 -17 -17 -17 -17 -17 -17 -16 -15 -14 -15 -15 -14 -14 -14 -13 -14 -14 -14 -14 -14 -14 -14 -13 -12 -13 -14 -14 -13 -12 -12 -13 -13 -12
-18 -18 -18 -18 -19 -19 -19 -19 -18 -18 -18 -18 -18 -18 -17 -18 -17 -18 -17 -18 -18 -16 -15 -17 -17 -14 -16 -14 -13 -13 -13 -14 -14 -14 -14 -13 -12 -13 -13 -13 -13 -13 -13 -12 -13 -13 -13
-19 -19 -19 -19 -19 -19 -19 -19 -19 -18 -18 -18 -18 -18 -18 -18 -18 -18 -18 -18 -18 -18 -17 -18 -19 -17 -17 -14 -14 -13 -14 -13 -14 -14 -14 -14 -14 -14 -13 -13 -14 -13 -13 -13 -13 -14 -13
-20 -20 -20 -19 -19 -19 -19 -19 -19 -19 -18 -18 -18 -18 -18 -18 -18 -18 -17 -17 -17 -17 -17 -17 -18 -18 -17 -16 -14 -15 -14 -14 -14 -14 -14 -13 -14 -14 -13 -13 -14 -13 -14 -13 -13 -13 -13
-20 -20 -20 -20 -19 -19 -19 -19 -19 -19 -19 -18 -18 -18 -18 -18 -18 -18 -17 -17 -17 -17 -17 -17 -17 -17 -17 -16 -15 -16 -14 -13 -13 -14 -14 -14 -15 -14 -13 -13 -14 -14 -14 -14 -13 -13 -12
-20 -20 -20 -20 -19 -19 -19 -19 -19 -19 -19 -19 -18 -18 -18 -18 -18 -18 -17 -17 -17 -17 -17 -17 -17 -17 -17 -16 -16 -16 -15 -14 -15 -14 -14 -14 -15 -14 -14 -14 -14 -14 -14 -14 -13 -13 -12
-20 -20 -20 -20 -20 -20 -19 -19 -19 -19 -19 -19 -19 -18 -18 -18 -18 -18 -18 -17 -17 -17 -17 -17 -17 -17 -17 -17 -17 -16 -17 -16 -15 -15 -15 -15 -16 -15 -14 -14 -14 -14 -14 -13 -13 -13 -12
-21 -21 -20 -20 -20 -20 -20 -20 -19 -20 -20 -19 -19 -19 -19 -19 -19 -18 -18 -18 -17 -17 -17 -17 -17 -17 -17 -17 -17 -17 -17 -18 -17 -16 -15 -15 -17 -16 -15 -14 -14 -15 -15 -14 -14 -13 -13
-21 -21 -21 -21 -20 -20 -20 -20 -20 -20 -20 -20 -20 -20 -19 -20 -20 -19 -18 -18 -17 -17 -17 -17 -18 -18 -18 -18 -17 -17 -17 -18 -17 -17 -17 -16 -16 -17 -17 -16 -15 -15 -14 -15 -14 -14 -13
-22 -22 -22 -22 -21 -21 -21 -21 -22 -22 -21 -21 -21 -20 -20 -21 -21 -20 -19 -18 -18 -17 -17 -17 -18 -18 -18 -18 -18 -18 -18 -17 -17 -17 -16 -17 -17 -16 -17 -16 -16 -15 -15 -15 -14 -14 -14
-23 -23 -22 -22 -22 -22 -23 -22 -22 -22 -22 -22 -21 -21 -21 -22 -22 -21 -20 -19 -18 -19 -18 -18 -18 -19 -19 -18 -19 -18 -18 -17 -16 -16 -16 -16 -16 -16 -16 -16 -16 -16 -15 -15 -15 -14 -14
-23 -23 -23 -23 -23 -23 -23 -23 -23 -24 -24 -23 -23 -22 -22 -24 -23 -22 -21 -21 -20 -20 -20 -19 -19 -20 -19 -19 -19 -19 -18 -17 -17 -16 -16 -16 -16 -16 -16 -16 -16 -16 -15 -15 -15 -14 -14
-24 -24 -24 -24 -24 -24 -24 -24 -24 -25 -25 -26 -25 -25 -25 -26 -24 -23 -22 -22 -21 -21 -21 -20 -19 -20 -20 -20 -20 -19 -19 -18 -18 -17 -16 -16 -15 -16 -16 -16 -16 -16 -15 -15 -14 -14 -14
-24 -24 -24 -24 -24 -24 -24 -24 -25 -25 -26 -26 -26 -27 -27 -26 -26 -25 -23 -22 -22 -22 -22 -21 -21 -21 -21 -21 -21 -20 -19 -18 -18 -18 -17 -16 -16 -16 -16 -16 -16 -16 -16 -16 -15 -14 -14
-25 -25 -24 -24 -24 -24 -24 -24 -25 -26 -27 -27 -26 -26 -27 -27 -26 -26 -25 -23 -23 -23 -23 -22 -22 -22 -22 -21 -21 -21 -20 -19 -19 -18 -18 -17 -17 -16 -16 -16 -16 -16 -16 -16 -16 -15 -14
-25 -25 -25 -24 -24 -25 -25 -25 -26 -26 -27 -27 -26 -26 -27 -27 -26 -26 -25 -24 -24 -24 -24 -24 -24 -24 -24 -22 -22 -21 -21 -20 -20 -19 -18 -18 -18 -18 -18 -18 -17 -16 -17 -17 -16 -16 -16
-25 -25 -25 -25 -25 -25 -26 -26 -26 -26 -27 -27 -26 -26 -27 -27 -27 -27 -26 -25 -25 -25 -25 -25 -25 -24 -24 -24 -22 -21 -21 -21 -20 -21 -20 -19 -19 -19 -19 -19 -19 -17 -17 -17 -17 -17 -17
-25 -25 -25 -25 -25 -25 -25 -26 -26 -26 -26 -27 -27 -27 -27 -26 -27 -27 -26 -25 -25 -25 -25 -25 -25 -24 -24 -24 -24 -23 -22 -21 -21 -21 -21 -20 -21 -20 -20 -20 -19 -18 -19 -19 -18 -17 -17
-25 -25 -25 -25 -25 -25 -25 -25 -26 -26 -26 -26 -27 -26 -27 -26 -27 -26 -26 -25 -25 -25 -25 -24 -24 -24 -24 -24 -23 -23 -22 -21 -21 -21 -21 -21 -21 -21 -20 -20 -19 -19 -19 -19 -19 -19 -18
-24 -24 -24 -24 -24 -24 -25 -25 -25 -26 -26 -26 -26 -26 -26 -26 -26 -26 -26 -26 -25 -25 -25 -24 -24 -24 -24 -24 -23 -22 -22 -22 -22 -21 -21 -21 -21 -21 -20 -20 -19 -19 -19 -19 -19 -19 -19
-25 -24 -24 -24 -24 -24 -24 -24 -25 -25 -25 -26 -26 -26 -26 -26 -25 -26 -25 -25 -25 -25 -24 -24 -24 -24 -24 -23 -23 -22 -22 -22 -21 -21 -21 -21 -21 -21 -21 -20 -20 -20 -20 -20 -20 -19 -19
-26 -25 -25 -25 -24 -24 -24 -24 -24 -25 -25 -25 -26 -26 -26 -25 -25 -25 -26 -25 -25 -24 -24 -24 -24 -24 -24 -23 -22 -22 -21 -21 -21 -21 -21 -21 -21 -21 -21 -20 -20 -20 -20 -20 -20 -20 -19
-26 -26 -26 -26 -25 -24 -24 -24 -24 -24 -25 -25 -24 -25 -25 -24 -24 -25 -25 -25 -25 -24 -24 -24 -24 -24 -24 -23 -22 -22 -22 -22 -21 -21 -21 -21 -21 -21 -21 -20 -20 -20 -21 -20 -20 -19 -20
Height
5731 5730 5729 5730 5728 5728 5728 5728 5728 5727 5726 5727 5726 5726 5728 5729 5729 5729 5729 5730 5731 5734 5737 5740 5744 5747 5750 5753 5756 5756 5759 5761 5762 5762 5763 5765 5769 5770 5771 5772 5772 5773 5774 5772 5770 5769 5767
5718 5717 5716 5716 5716 5714 5715 5717 5716 5715 5716 5715 5715 5715 5715 5716 5716 5717 5718 5719 5718 5720 5722 5726 5732 5736 5738 5744 5746 5745 5751 5753 5755 5756 5757 5759 5761 5764 5766 5767 5768 5768 5769 5768 5766 5765 5763
5705 5705 5704 5704 5704 5702 5703 5703 5702 5702 5703 5702 5704 5703 5703 5704 5703 5703 5704 5707 5709 5707 5709 5712 5718 5722 5727 5736 5737 5738 5740 5743 5746 5749 5750 5751 5754 5758 5761 5761 5763 5763 5764 5763 5761 5761 5759
5692 5692 5691 5691 5690 5691 5690 5690 5691 5690 5691 5691 5692 5693 5694 5691 5689 5692 5692 5693 5695 5699 5699 5698 5704 5707 5715 5721 5726 5729 5730 5735 5738 5741 5742 5743 5748 5751 5755 5756 5757 5758 5759 5759 5756 5757 5756
5680 5679 5679 5681 5679 5679 5679 5680 5680 5680 5681 5681 5682 5681 5682 5683 5681 5679 5679 5680 5682 5686 5689 5687 5692 5694 5703 5709 5712 5717 5721 5725 5727 5732 5733 5736 5741 5745 5747 5750 5751 5753 5754 5753 5750 5753 5753
5665 5666 5668 5668 5668 5668 5669 5671 5671 5672 5672 5672 5673 5674 5675 5672 5672 5673 5668 5668 5669 5674 5677 5676 5680 5683 5689 5694 5697 5703 5707 5714 5717 5722 5722 5729 5734 5737 5741 5743 5747 5747 5745 5746 5748 5748 5748
5654 5653 5654 5656 5657 5659 5659 5661 5662 5663 5663 5663 5664 5666 5666 5665 5664 5664 5663 5661 5663 5664 5665 5665 5668 5670 5673 5677 5684 5689 5695 5700 5706 5709 5714 5722 5723 5732 5738 5737 5738 5740 5740 5743 5744 5740 5742
5641 5643 5643 5645 5646 5647 5650 5651 5651 5651 5653 5655 5656 5657 5657 5657 5658 5655 5656 5656 5654 5653 5656 5655 5657 5658 5659 5660 5671 5677 5683 5689 5696 5701 5707 5709 5713 5727 5728 5728 5732 5734 5736 5738 5738 5735 5734
5629 5631 5631 5632 5635 5636 5638 5639 5641 5642 5643 5645 5647 5647 5648 5651 5651 5650 5649 5648 5648 5646 5644 5654 5648 5647 5650 5652 5661 5667 5672 5677 5686 5690 5695 5699 5712 5716 5720 5721 5724 5729 5731 5733 5732 5729 5729
5615 5618 5622 5621 5622 5625 5626 5628 5630 5630 5633 5634 5635 5637 5639 5643 5644 5642 5642 5642 5641 5640 5636 5642 5641 5642 5644 5645 5651 5654 5658 5666 5673 5680 5685 5687 5697 5705 5710 5713 5717 5720 5726 5725 5725 5723 5724
5604 5606 5606 5609 5611 5613 5613 5617 5618 5619 5620 5622 5623 5627 5629 5632 5633 5634 5636 5634 5634 5634 5628 5634 5636 5636 5638 5641 5643 5645 5650 5655 5663 5670 5674 5682 5693 5699 5702 5707 5709 5716 5716 5715 5717 5716 5717
5590 5592 5593 5595 5598 5601 5601 5602 5605 5606 5607 5609 5611 5615 5618 5621 5622 5625 5626 5626 5627 5627 5624 5629 5630 5633 5634 5634 5636 5639 5642 5646 5653 5656 5662 5669 5679 5684 5691 5697 5700 5703 5707 5708 5709 5710 5709
5575 5578 5580 5582 5584 5586 5588 5588 5590 5591 5592 5595 5598 5601 5605 5608 5609 5613 5615 5618 5620 5618 5621 5622 5625 5627 5630 5631 5631 5633 5636 5638 5642 5647 5652 5660 5669 5676 5683 5687 5691 5694 5700 5701 5702 5701 5706
5560 5562 5564 5567 5568 5571 5572 5573 5574 5575 5576 5578 5581 5586 5590 5594 5595 5600 5602 5608 5609 5610 5615 5617 5618 5621 5625 5626 5627 5629 5629 5632 5635 5639 5645 5651 5657 5666 5676 5681 5686 5690 5693 5694 5693 5695 5700
5543 5545 5547 5550 5551 5554 5555 5557 5558 5559 5559 5561 5564 5570 5576 5578 5580 5585 5589 5593 5599 5604 5606 5609 5610 5613 5617 5620 5622 5624 5626 5628 5631 5634 5638 5643 5649 5656 5664 5671 5674 5678 5680 5690 5688 5687 5687
5524 5528 5530 5532 5535 5537 5538 5540 5541 5541 5541 5542 5547 5553 5562 5561 5565 5570 5574 5580 5587 5591 5595 5601 5602 5605 5608 5613 5616 5618 5622 5624 5627 5631 5635 5638 5642 5648 5654 5659 5663 5667 5674 5677 5676 5677 5679
5507 5511 5513 5516 5518 5520 5522 5522 5523 5522 5521 5520 5528 5532 5546 5545 5549 5553 5558 5568 5575 5579 5582 5589 5594 5595 5600 5603 5607 5611 5615 5619 5622 5626 5630 5634 5639 5642 5646 5651 5656 5660 5663 5668 5672 5672 5672
5491 5494 5497 5500 5502 5504 5505 5506 5506 5504 5502 5502 5506 5511 5525 5526 5532 5538 5544 5554 5562 5568 5570 5575 5583 5585 5588 5594 5598 5602 5607 5612 5615 5620 5623 5627 5631 5637 5641 5645 5649 5652 5655 5658 5660 5666 5666
5475 5479 5482 5484 5486 5487 5489 5490 5491 5489 5487 5487 5489 5496 5504 5508 5511 5522 5530 5539 5548 5555 5559 5562 5569 5574 5576 5583 5590 5593 5597 5602 5607 5611 5616 5620 5623 5629 5634 5640 5643 5646 5648 5650 5654 5656 5658
5459 5463 5465 5468 5469 5471 5473 5474 5475 5475 5473 5474 5479 5483 5490 5494 5500 5509 5519 5526 5537 5542 5547 5551 5557 5564 5568 5571 5576 5583 5588 5593 5598 5603 5608 5612 5616 5620 5626 5633 5635 5637 5641 5644 5646 5648 5650
5445 5447 5450 5451 5453 5455 5457 5459 5461 5461 5460 5460 5466 5474 5480 5483 5492 5500 5507 5514 5524 5531 5535 5540 5547 5551 5556 5561 5566 5572 5580 5584 5590 5594 5599 5603 5607 5612 5617 5621 5626 5630 5633 5636 5639 5641 5643
5431 5433 5434 5436 5437 5438 5442 5444 5447 5449 5447 5446 5458 5467 5471 5476 5483 5490 5495 5502 5513 5522 5528 5533 5539 5543 5545 5552 5557 5563 5568 5573 5578 5585 5590 5594 5598 5603 5608 5611 5615 5621 5625 5627 5631 5633 5635
5418 5420 5421 5423 5424 5426 5427 5431 5434 5436 5436 5440 5451 5456 5459 5467 5472 5479 5487 5496 5507 5513 5520 5525 5530 5534 5539 5544 5548 5554 5558 5565 5571 5575 5581 5587 5590 5594 5598 5603 5606 5611 5617 5620 5623 5625 5626
5407 5410 5412 5414 5416 5418 5419 5420 5423 5425 5428 5435 5440 5445 5449 5458 5464 5473 5480 5488 5498 5506 5514 5519 5525 5531 5534 5537 5542 5547 5551 5556 5561 5567 5571 5576 5580 5584 5588 5591 5595 5603 5608 5611 5612 5615 5616
5398 5400 5403 5406 5408 5411 5413 5414 5416 5417 5420 5425 5430 5435 5441 5448 5456 5464 5473 5482 5491 5498 5507 5514 5521 5524 5527 5532 5536 5540 5545 5550 5554 5559 5564 5567 5571 5575 5578 5580 5587 5593 5596 5600 5600 5607 5606
5387 5390 5393 5396 5399 5402 5405 5408 5410 5412 5413 5416 5422 5428 5434 5441 5449 5459 5466 5477 5486 5494 5501 5510 5514 5518 5521 5526 5529 5534 5539 5543 5548 5553 5558 5562 5566 5569 5571 5575 5580 5583 5586 5587 5587 5599 5595
5378 5379 5382 5385 5389 5393 5397 5401 5405 5407 5409 5411 5416 5422 5429 5434 5443 5453 5463 5472 5480 5488 5497 5503 5508 5512 5515 5520 5524 5530 5534 5539 5543 5549 5554 5557 5560 5564 5566 5571 5577 5577 5576 5578 5582 5589 5582
5371 5372 5372 5373 5377 5382 5388 5394 5399 5403 5406 5407 5414 5417 5423 5430 5441 5451 5459 5466 5475 5484 5491 5497 5502 5506 5511 5515 5520 5524 5529 5534 5539 5543 5548 5552 5555 5558 5562 5566 5571 5570 5569 5570 5575 5578 5576
5364 5364 5364 5365 5365 5369 5377 5385 5391 5397 5401 5406 5410 5415 5421 5428 5440 5447 5455 5462 5471 5479 5483 5489 5495 5500 5505 5509 5514 5518 5523 5529 5533 5537 5540 5545 5549 5552 5557 5561 5562 5562 5561 5559 5565 5569 5569
Wind_Speed
49 48 48 50 49 49 52 54 55 55 55 58 59 59 60 62 59 60 60 58 58 61 57 52 46 42 42 40 33 37 33 33 32 30 32 31 31 30 27 23 25 23 17 20 22 21 20
52 52 50 50 50 49 52 54 54 54 56 56 56 56 57 57 55 53 51 55 54 54 54 51 48 46 44 42 38 39 37 34 33 31 32 31 32 31 27 23 26 26 19 21 23 20 20
54 53 52 50 49 48 49 49 48 47 49 49 51 50 52 54 53 52 51 51 51 50 50 49 49 47 46 41 42 42 42 37 35 34 32 32 33 32 28 25 25 28 22 21 24 18 19
52 52 51 51 48 47 47 47 47 46 46 45 46 47 51 50 49 50 50 50 50 49 49 49 49 48 45 45 45 45 45 38 37 34 35 35 33 31 29 24 22 27 24 22 26 17 17
54 52 51 51 49 47 47 45 43 41 40 39 39 39 40 43 44 42 43 47 48 49 48 49 49 48 45 48 47 48 50 41 39 37 37 35 34 30 31 24 21 24 22 23 27 17 15
51 51 51 51 49 47 46 45 41 38 37 36 35 34 35 32 31 35 36 40 45 46 49 49 49 45 46 46 50 47 52 48 41 40 42 36 35 33 29 23 17 20 27 27 25 24 19
51 48 48 49 47 45 42 42 39 38 37 34 33 32 33 32 29 31 32 33 37 39 47 45 47 45 48 50 49 47 51 54 47 45 43 37 39 32 26 28 26 26 29 27 24 30 24
49 48 45 45 44 41 41 41 37 35 34 33 32 31 31 31 31 28 28 30 32 38 37 37 38 40 38 50 48 44 49 45 51 46 43 44 41 30 32 31 29 28 29 25 24 28 30
46 46 43 41 42 41 41 38 37 37 36 37 36 34 33 32 34 33 33 31 33 34 35 20 32 34 27 44 39 45 47 50 51 51 47 46 38 36 36 33 31 29 30 27 27 30 31
47 47 47 44 42 41 41 41 40 40 42 42 41 40 40 37 36 35 36 35 34 35 37 30 28 30 28 31 31 36 47 51 53 56 49 50 43 40 37 36 34 34 29 31 30 32 32
50 50 47 46 45 45 45 45 45 46 46 47 46 46 45 43 41 40 37 37 38 34 40 28 21 22 25 30 31 31 40 48 49 53 56 48 39 38 40 34 34 29 33 35 35 36 34
52 51 50 48 50 50 50 49 51 51 52 52 51 51 50 48 47 43 40 38 38 38 39 32 25 18 18 23 29 28 35 42 41 45 51 52 44 43 44 36 34 34 34 37 38 38 37
54 54 54 53 54 55 55 54 54 55 56 56 55 55 54 52 51 47 44 42 40 39 36 34 29 23 25 18 20 26 28 33 35 39 41 46 40 43 42 41 39 39 37 38 39 41 34
58 59 58 57 57 57 58 58 59 60 60 59 60 59 58 57 55 52 50 48 45 41 38 36 34 30 29 26 24 19 25 27 34 33 37 39 38 33 37 40 38 36 36 39 42 40 35
61 61 61 60 60 61 61 62 62 62 62 63 62 63 61 57 55 54 54 54 49 43 41 37 37 32 32 32 25 26 23 23 28 33 30 29 36 35 32 33 38 41 44 37 41 43 43
62 62 61 61 61 62 62 61 61 61 62 63 65 65 62 60 55 54 55 57 51 48 45 39 39 35 32 32 30 26 29 26 27 28 33 36 33 34 38 35 37 40 40 42 47 48 46
58 59 59 59 59 59 58 60 61 63 64 67 69 70 64 62 59 59 61 54 51 49 49 44 39 37 33 32 30 33 33 32 31 29 28 31 36 33 29 38 37 37 40 40 43 45 45
57 58 58 57 57 57 57 56 55 56 59 62 63 67 63 61 62 62 61 52 50 46 49 47 41 38 38 36 35 34 34 36 36 36 32 33 31 32 36 36 35 38 40 41 43 43 44
55 54 56 57 57 55 54 52 53 52 49 48 51 52 51 52 62 62 60 53 47 45 46 47 45 41 41 39 36 38 39 39 39 41 39 39 38 35 32 32 35 40 41 39 36 39 41
53 55 56 53 52 52 51 51 50 49 51 50 43 43 43 47 53 53 54 52 44 43 45 46 43 40 40 41 43 42 43 44 43 43 43 43 44 45 40 36 37 38 39 40 41 42 40
46 48 49 49 49 51 49 45 46 44 47 49 46 40 41 46 45 46 48 50 44 41 42 42 39 38 38 41 44 46 45 46 45 45 46 46 47 48 46 44 41 41 43 42 44 44 45
43 44 46 48 49 49 47 44 44 39 44 49 43 37 38 40 41 42 44 44 40 35 35 32 30 29 33 37 39 41 43 45 46 45 46 47 47 45 42 41 45 44 44 44 46 47 49
42 42 36 30 29 30 33 42 41 41 43 44 39 37 38 38 40 40 40 39 33 30 30 27 26 30 30 30 35 37 40 41 43 47 45 45 45 47 47 41 39 45 41 43 44 47 49
27 28 28 27 24 20 20 23 33 39 40 37 36 37 38 35 36 38 37 34 29 27 25 25 23 23 27 30 30 32 34 36 38 37 40 41 43 43 42 43 47 46 42 37 41 44 47
29 29 28 26 25 25 24 21 21 28 37 34 34 37 36 35 38 38 34 31 30 30 24 24 23 24 28 29 30 31 31 31 31 31 33 35 36 36 41 47 43 42 38 38 39 40 40
29 30 31 30 28 27 25 25 23 20 25 35 33 35 35 34 34 37 33 29 29 22 21 22 22 20 26 27 28 29 30 29 29 29 28 26 25 24 22 20 19 23 35 43 46 41 44
21 26 32 35 34 31 29 26 24 20 20 22 27 34 33 34 31 34 34 29 22 21 20 23 22 23 25 28 27 29 27 28 28 27 26 26 25 22 20 16 11 14 20 22 24 29 42
17 16 18 24 36 38 34 30 28 26 23 18 15 20 29 29 28 33 27 20 19 21 20 21 21 23 27 27 27 28 28 29 29 28 28 27 27 25 23 20 16 21 25 27 24 21 27
22 23 23 22 23 37 41 36 33 30 29 27 18 17 21 29 32 30 26 23 22 23 25 24 20 22 28 27 26 28 29 29 31 31 30 30 29 29 27 24 24 25 30 34 31 26 30
Wind_Direction
271 275 277 276 274 275 271 269 268 269 268 267 269 272 274 275 277 275 274 271 271 270 270 266 262 260 259 252 248 250 255 257 257 256 254 256 260 262 263 268 272 280 263 265 277 287 297
275 273 270 270 270 272 271 269 270 270 271 272 272 272 273 274 277 276 275 273 271 269 267 266 259 255 253 249 242 247 252 251 256 252 253 254 255 257 259 262 266 274 279 261 270 275 287
273 272 273 273 273 273 274 276 276 275 275 277 276 276 275 274 274 273 273 272 271 267 264 260 256 253 251 246 242 243 252 244 251 253 253 250 251 254 254 258 266 270 278 267 267 272 281
269 270 273 273 274 276 276 277 277 277 277 278 279 279 278 275 274 273 273 270 268 266 261 253 251 249 248 246 242 241 248 245 248 250 250 249 252 253 253 254 263 268 273 274 270 274 280
270 271 272 272 273 274 274 275 275 275 276 277 277 278 279 280 278 276 275 274 271 265 261 255 251 250 248 246 242 239 245 244 242 248 250 250 249 252 247 253 256 263 273 266 267 278 279
266 268 269 270 270 270 271 270 269 268 269 271 271 272 274 275 281 281 280 277 272 266 261 257 250 249 249 249 245 237 246 243 238 242 247 246 245 249 244 243 257 261 255 263 272 280 280
267 264 265 266 264 265 264 264 263 265 265 266 271 272 272 275 279 285 282 278 274 265 259 260 256 250 250 247 246 240 240 242 231 234 244 246 244 243 256 254 245 245 256 263 274 278 281
265 264 262 261 259 259 259 259 260 260 262 264 267 269 275 279 276 276 284 287 279 270 257 265 252 247 248 244 239 240 241 238 229 233 240 242 241 244 250 249 246 242 253 263 269 273 276
262 262 258 258 258 258 259 259 259 262 263 266 270 271 272 275 276 276 277 281 283 280 267 252 258 256 247 240 236 241 242 239 228 228 234 240 243 244 243 246 244 242 248 252 259 268 270
258 258 259 258 258 259 260 260 262 263 266 268 271 273 273 273 274 276 276 277 276 282 277 275 267 253 259 258 242 236 238 232 233 225 230 236 235 237 239 245 242 242 247 247 253 261 266
260 258 258 259 260 260 261 263 265 266 267 269 270 271 272 273 273 273 276 274 272 276 280 283 272 260 253 252 250 247 237 234 228 226 228 236 239 241 241 242 241 240 239 243 247 255 259
259 258 259 260 262 264 264 265 267 268 268 269 269 269 270 271 271 271 273 271 269 271 277 273 272 267 265 251 249 248 245 235 233 229 233 226 227 230 236 233 233 232 236 244 250 256 260
260 260 262 263 264 265 266 267 268 269 268 268 267 267 268 269 267 269 268 267 266 263 270 274 266 264 255 258 248 249 240 243 239 233 232 228 225 228 232 234 232 236 236 245 250 255 266
260 261 262 263 264 266 268 269 269 269 269 269 268 267 268 267 266 266 264 264 263 265 263 266 269 264 263 250 253 247 247 239 249 239 229 230 218 225 232 237 240 238 239 242 251 257 263
259 261 263 264 266 267 268 269 269 269 269 268 268 267 267 266 264 262 261 261 261 260 261 261 264 260 254 253 246 246 242 252 235 241 240 240 226 212 223 228 231 233 236 240 246 252 254
260 261 263 265 266 269 270 270 271 271 270 268 266 264 263 263 262 260 257 258 256 256 255 254 260 258 252 248 242 239 239 233 236 234 238 238 240 224 215 227 229 233 234 235 240 246 251
261 262 264 266 268 269 271 274 275 275 273 270 266 262 259 258 256 256 257 254 253 251 250 247 250 255 249 245 241 238 236 233 236 240 238 234 235 238 235 223 230 238 241 242 245 249 253
261 262 263 264 267 271 273 274 274 275 271 267 264 259 254 249 250 251 253 252 250 248 248 248 243 246 244 238 234 232 235 236 235 235 239 242 237 228 233 238 238 240 242 241 243 248 256
259 261 262 265 269 270 269 270 270 271 263 265 263 256 248 242 243 244 247 249 247 246 245 246 243 239 240 237 229 231 231 232 232 237 234 235 240 238 227 231 238 241 244 246 247 252 252
258 262 264 266 266 266 266 267 263 263 257 259 261 252 240 239 241 240 240 243 240 243 243 244 244 239 236 231 232 229 228 231 233 236 238 237 237 241 240 232 234 240 241 245 248 252 261
262 264 264 265 265 265 263 259 257 259 253 252 252 251 244 242 237 240 238 238 234 238 241 241 239 239 234 231 229 233 231 233 234 237 241 243 242 242 244 245 240 239 244 245 248 251 256
263 264 266 267 266 262 256 254 251 252 248 248 249 250 246 243 240 231 233 232 232 233 235 240 238 229 228 231 231 231 233 237 238 237 235 240 244 247 248 248 246 242 240 245 248 251 257
265 265 261 260 259 258 257 248 246 246 248 250 246 245 240 237 232 227 228 229 229 226 222 220 223 220 226 227 231 235 236 235 238 242 245 244 244 245 246 242 246 249 248 250 249 250 255
251 252 253 251 251 254 257 256 247 242 246 247 242 239 237 233 228 227 226 223 218 208 205 209 217 219 224 229 232 234 237 240 240 238 244 247 249 249 251 251 249 255 252 255 256 254 256
251 249 248 246 245 244 246 253 257 249 240 242 236 233 230 227 225 222 221 216 198 196 203 205 206 215 224 229 234 233 235 235 235 231 234 241 244 249 251 250 253 253 258 256 255 250 256
257 252 248 244 238 236 238 242 248 252 244 234 231 230 229 226 220 216 211 204 194 202 207 196 216 219 226 229 232 230 231 230 230 227 228 229 232 242 252 259 263 258 257 259 261 259 259
268 264 257 249 240 234 231 230 235 240 241 240 232 228 225 222 217 210 192 193 211 210 202 202 221 227 225 226 229 227 228 228 223 221 223 228 232 236 246 250 243 250 256 257 266 260 261
270 275 277 263 245 234 226 222 223 228 233 239 228 220 219 218 201 190 196 209 218 214 208 211 228 225 224 225 225 227 225 224 224 225 228 233 239 242 248 258 255 254 262 267 274 279 278
269 266 271 270 266 235 223 218 216 218 225 228 229 200 202 195 184 200 209 216 216 222 229 233 232 216 220 226 223 226 228 224 225 231 237 239 243 246 250 257 260 263 269 273 277 281 285